Hourly Data Report for September 10, 2021

WINNIPEG THE FORKS
MANITOBA
Current Station Operator: ECCC - MSC

49°53'18.008" N
97°07'46.007" W
230.00 m
5023262
71579
XWN

Download Data

Hourly Data (September 2021)
Hourly Data Report for September 10, 2021
TIME
LST
Temp Definition
°C
Dew Point Definition
°C
Rel Hum Definition
%
Precip. Amount Definition
mm

Wind Dir Definition
10's deg

Wind Spd Definition
km/h
Visibility Definition
km
Stn Press Definition
kPa
Hmdx Definition


Wind Chill Definition


Weather Definition


00:00 15.6 10.8 73 0.0 31 2   98.36     LegendNANA
01:00 15.2 10.5 74 0.0 26 2   98.28     LegendNANA
02:00 14.8 10.2 74 0.0 20 4   98.19     LegendNANA
03:00 14.6 10.1 74 0.0 21 3   98.14     LegendNANA
04:00 14.5 10.1 75 0.0 24 1   98.13     LegendNANA
05:00 15.4 10.3 72 0.0 20 4   98.09     LegendNANA
06:00 15.1 10.1 72 0.0 20 8   98.04     LegendNANA
07:00 14.8 10.2 74 0.0 21 9   98.04     LegendNANA
08:00 15.6 10.6 72 0.0 21 8   98.01     LegendNANA
09:00 17.0 11.1 68 0.0 23 7   98.02     LegendNANA
10:00 19.4 11.2 59 0.0 25 4   98.01     LegendNANA
11:00 22.3 11.1 49 0.0 29 4   98.04     LegendNANA
12:00 25.1 11.2 42 0.0 27 7   98.00 27   LegendNANA
13:00 26.5 10.9 38 0.0 27 6   97.98 28   LegendNANA
14:00 27.4 9.2 32 0.0 30 7   97.95 28   LegendNANA
15:00 28.3 9.2 30 0.0 27 6   97.90 29   LegendNANA
16:00 27.9 8.9 31 0.0 29 5   97.87 29   LegendNANA
17:00 27.5 9.2 32 0.0 30 4   97.88 28   LegendNANA
18:00 23.9 11.4 45 0.0 34 14   97.95 26   LegendNANA
19:00 21.9 9.5 45 0.0 34 12   98.04     LegendNANA
20:00 17.7 12.8 73 0.0 33 11   98.21     LegendNANA
21:00 16.7 13.2 80 0.8 36 5   98.23     LegendNANA
22:00 16.4 12.7 79 0.7 34 6   98.29     LegendNANA
23:00 15.7 12.0 79 0.0 33 4   98.33     LegendNANA

Notes on Data Quality.

Legend

  • E = Estimated
  • M = Missing
  • NA = Not Available*
  • [empty] = Indicates an unobserved value
Date modified: